Location: *
(45.9500°N, 9.0833°E)
Time: 15:02:22
(UTC+00:00)

APEX - Pass Details

Date: 03 March 2021
Orbit: 332 x 1080 km, 69.9° (Epoch: 19 April)

Event Time Altitude Azimuth Distance (km) Brightness Sun altitude
Rises 17:37:46 0° 331° (NNW) 2,227 6.8 -5.1°
Reaches altitude 10° 17:39:49 10° 329° (NNW) 1,321 5.7 -5.4°
Maximum altitude 17:42:38 76° 244° (WSW) 351 2.5 -5.9°
Drops below altitude 10° 17:45:19 10° 158° (SSE) 1,266 5.0 -6.4°
Sets 17:47:15 0° 156° (SSE) 2,118 6.1 -6.7°
